GFSMW_sfc_rhum_174.txt.gz
RH
25 25 30 33 35 45 42 46 49 50 49 49 52 55 54 54 54 54 56 58 62 65 68 64 63 64 65 68 69 71 73 71 69 74 71 67 62 60 62 56 54 55 48
26 28 32 37 42 42 43 43 42 47 44 42 49 53 53 51 51 54 55 60 60 65 56 69 67 66 66 69 74 74 72 72 69 74 80 79 64 68 58 62 59 56 56
29 31 34 40 43 43 46 37 40 45 49 46 45 50 50 52 53 56 57 57 57 60 66 66 68 68 68 72 66 65 69 76 69 68 83 84 79 80 68 63 65 60 60
29 30 34 38 43 46 46 40 40 41 47 52 52 55 54 54 55 56 58 57 58 59 62 65 66 71 69 70 68 65 68 72 82 74 59 69 82 90 85 71 63 61 58
30 32 32 34 35 45 48 49 44 44 49 54 56 56 60 57 54 57 60 60 59 59 56 64 69 67 70 69 66 67 70 79 85 83 76 69 71 69 84 88 75 66 63
31 30 31 33 35 52 56 53 44 43 50 53 57 60 62 59 57 59 60 62 62 60 62 59 65 66 68 58 64 62 71 67 67 72 72 72 81 79 87 88 77 76 68
32 33 32 32 38 47 51 49 41 44 50 56 56 56 58 57 56 57 60 62 63 65 66 65 67 66 67 61 66 71 65 61 68 63 69 64 66 67 78 86 84 84 72
34 32 32 35 39 46 48 46 39 42 48 52 54 54 54 55 54 58 61 61 62 64 66 66 67 67 66 64 63 67 67 64 71 60 61 67 64 63 76 83 94 92 77
35 32 33 38 39 45 49 52 43 41 46 50 53 53 55 57 59 61 62 64 63 51 65 68 67 66 64 65 58 67 67 66 66 69 69 63 68 73 74 77 82 96 96
35 34 34 41 40 43 46 55 46 43 45 46 52 49 53 55 57 60 62 63 63 62 64 65 66 65 67 63 64 68 65 65 68 64 69 70 70 71 75 79 80 82 93
36 36 37 40 42 44 48 54 49 45 49 48 52 56 57 56 57 59 61 62 64 61 62 62 63 65 67 60 66 70 57 67 69 70 70 73 71 74 76 74 76 83 84
36 36 40 46 45 46 47 49 53 48 52 52 52 57 58 56 58 60 60 64 62 62 61 61 60 59 64 64 70 73 66 70 75 73 72 75 68 75 76 78 80 83 79
36 39 46 52 59 55 52 51 54 50 44 42 54 57 60 59 60 61 62 61 61 60 60 60 64 66 69 68 79 70 71 72 74 74 78 85 74 81 78 79 84 85 71
34 39 48 59 72 65 69 57 64 62 52 44 48 57 58 58 59 60 62 62 60 59 59 61 65 70 62 77 73 72 76 75 73 79 80 83 76 82 94 88 82 78 82
35 37 50 62 59 62 56 53 58 54 47 42 47 53 55 53 54 59 62 60 59 56 58 61 68 67 61 66 81 79 79 77 82 78 76 76 70 69 73 81 90 81 90
32 36 55 55 55 53 50 49 49 46 42 42 44 44 48 47 52 54 55 56 59 58 59 61 67 65 50 63 65 72 82 79 78 80 78 75 72 79 73 72 67 73 86
31 37 53 51 48 48 46 47 46 44 40 41 37 39 40 41 48 45 46 53 56 56 59 61 65 60 66 62 64 65 74 78 80 81 80 76 77 84 88 76 73 76 73
32 41 45 44 43 43 44 48 40 43 44 41 37 37 40 39 41 46 48 54 53 54 53 56 58 61 48 62 65 64 60 66 75 77 77 80 85 91 78 81 87 85 84
40 42 40 39 40 41 45 41 41 42 41 41 40 38 40 38 41 47 53 53 53 53 53 50 55 56 54 62 65 63 61 62 69 65 72 73 87 71 70 90 91 88 85
37 37 37 39 42 41 39 39 43 43 43 43 42 38 39 39 42 50 52 53 50 46 46 49 55 54 53 55 66 63 62 71 72 71 68 67 69 66 79 81 92 94 88
36 36 38 40 39 38 38 43 42 48 46 43 40 39 37 42 44 52 52 51 51 53 57 58 55 52 55 58 64 64 60 73 78 72 73 74 68 79 74 67 88 88 75
37 36 39 36 35 34 36 37 42 46 45 42 41 42 46 41 40 53 54 52 55 60 65 66 64 65 62 62 66 63 64 66 78 79 80 73 77 72 64 68 66 68 77
35 34 35 38 34 31 31 35 40 41 49 50 53 54 51 51 51 57 61 65 67 69 73 75 80 78 72 75 65 67 65 65 71 70 64 70 67 64 70 64 64 70 82
36 32 34 34 36 32 32 33 36 42 61 77 88 75 89 76 72 77 78 87 93 91 85 88 90 89 82 81 80 80 87 77 77 80 76 75 73 73 73 72 70 71 75
34 34 37 39 36 33 34 36 37 43 63 80 90 88 90 86 87 84 91 91 93 87 92 92 92 92 92 86 68 75 79 76 78 76 80 79 79 78 76 73 70 70 73
35 36 38 38 34 32 34 37 39 47 59 73 82 85 89 90 91 89 91 72 75 76 75 70 78 90 68 62 62 67 62 63 65 76 82 86 86 84 81 81 81 78 79

GFSMW_sfc_rhum_177.txt.gz
RH
35 34 40 47 50 55 57 57 52 54 56 59 60 61 62 63 64 66 64 67 68 69 74 76 76 76 81 79 72 74 74 74 67 75 71 82 70 71 60 57 62 60 55
33 36 44 49 52 54 56 56 52 51 52 55 56 58 57 64 63 68 64 64 65 68 63 78 78 78 82 81 74 68 70 66 66 76 81 85 74 67 59 67 61 63 58
35 38 42 52 55 54 55 52 53 52 56 54 54 57 58 62 61 66 66 65 62 71 73 75 78 78 82 82 78 71 65 79 70 68 78 91 84 77 73 62 72 62 66
33 37 42 55 54 53 52 50 52 55 54 57 60 59 64 63 66 68 64 69 64 69 69 74 74 78 84 82 78 63 67 69 86 73 60 68 77 92 84 74 66 67 61
35 39 43 46 51 52 52 52 54 57 58 60 63 69 68 68 66 66 69 65 68 68 66 75 76 79 83 75 65 60 61 68 76 80 75 74 72 68 79 87 70 65 61
36 38 40 43 47 49 56 53 55 56 60 62 64 66 64 64 65 67 74 70 74 75 72 69 75 75 80 78 71 58 59 59 62 63 64 70 81 85 87 88 77 74 68
38 38 41 44 46 50 51 55 54 59 62 63 64 62 60 60 65 69 72 72 75 78 79 76 78 79 78 79 74 60 71 67 71 61 68 68 70 71 77 85 83 78 72
36 37 39 46 48 49 52 52 55 59 62 62 62 60 59 66 69 66 70 76 76 75 75 76 72 73 79 77 73 76 80 66 70 68 67 67 67 66 76 83 91 89 75
37 37 38 49 50 54 54 58 54 55 59 59 60 60 62 63 66 65 71 74 72 57 73 69 74 76 77 77 75 80 70 69 72 75 72 72 72 69 74 76 82 92 94
38 39 42 52 52 52 52 56 51 53 55 57 58 58 62 62 63 70 68 70 67 70 70 73 76 74 76 65 61 83 67 72 76 69 77 75 75 72 75 77 76 81 90
40 43 46 49 52 52 53 51 55 53 56 58 61 64 66 62 64 67 70 67 69 67 69 73 73 73 71 66 73 77 73 76 75 74 75 79 75 81 76 77 77 81 83
43 47 48 53 53 54 51 52 59 57 61 62 62 65 65 62 66 67 68 68 67 67 70 72 71 72 74 76 89 82 80 79 76 76 80 82 73 90 77 80 85 90 77
46 51 55 58 65 63 60 59 61 60 57 59 66 67 67 65 69 68 67 66 65 64 65 68 74 74 76 90 83 81 82 80 77 80 85 85 89 82 80 95 84 82 72
45 54 55 64 69 68 70 68 69 65 58 57 63 69 68 65 67 68 64 66 63 64 65 70 77 69 78 79 80 80 85 82 79 82 83 79 80 79 94 93 93 79 82
48 53 59 63 66 64 64 64 64 62 60 56 60 66 64 61 63 66 64 64 62 62 64 76 71 68 80 67 86 83 85 86 82 83 79 78 70 66 73 94 92 88 87
42 52 60 63 57 58 62 60 61 58 54 55 57 58 58 54 58 58 60 62 64 61 66 73 70 77 61 63 64 75 92 82 80 86 83 77 72 76 82 76 72 74 88
39 63 61 59 56 55 55 62 55 52 52 54 51 54 54 52 53 52 56 57 60 59 64 71 67 78 75 64 65 65 84 85 88 87 83 79 78 79 90 73 74 82 77
41 59 60 59 56 51 54 53 48 53 56 52 49 51 52 50 49 56 56 60 59 60 59 66 67 70 61 64 65 66 68 70 80 82 83 85 83 92 73 78 89 90 86
57 58 56 52 50 50 49 48 52 53 55 54 53 52 52 49 54 58 58 60 60 63 63 64 67 69 66 62 62 63 61 63 71 70 74 76 82 72 68 95 92 89 85
52 50 47 46 48 47 43 47 52 54 56 58 56 54 52 51 56 57 60 60 61 61 63 61 70 61 67 63 62 60 60 71 74 72 68 69 70 68 83 78 92 92 93
44 43 44 48 47 43 44 52 54 62 61 59 56 55 51 51 58 60 63 67 71 70 76 72 74 67 64 66 62 62 60 71 75 72 73 76 70 78 65 64 80 88 79
46 44 47 45 42 43 46 50 58 61 61 60 60 62 58 50 53 69 71 70 76 78 80 81 79 76 76 63 63 64 64 64 75 81 86 74 72 63 62 66 65 67 78
42 40 41 43 42 42 43 52 55 58 65 66 69 70 65 65 65 74 78 84 82 84 83 90 96 94 83 91 71 72 71 72 79 77 67 65 64 65 73 67 64 71 82
40 38 38 40 45 45 43 47 55 65 74 86 91 86 91 86 79 93 90 96 97 97 96 97 98 98 97 95 92 82 96 84 82 85 81 83 78 81 80 77 73 73 78
41 38 41 44 45 44 44 46 63 71 79 89 95 95 95 92 93 95 96 97 97 91 96 97 98 99 100 92 67 69 77 78 77 84 88 89 84 83 80 76 72 73 75
42 44 44 43 43 44 49 53 63 74 79 84 94 96 96 97 97 97 98 73 81 81 71 73 84 96 70 60 58 61 61 60 65 81 90 92 92 90 86 87 84 80 81

GFSMW_sfc_rhum_183.txt.gz
RH
43 46 50 53 60 65 66 66 69 74 76 73 75 79 83 81 83 81 77 80 80 82 85 88 86 81 79 83 76 83 81 77 73 85 83 87 82 68 69 75 64 68 56
44 47 53 57 60 63 62 65 62 70 66 63 69 72 75 78 78 82 83 82 82 82 79 87 86 84 83 83 79 79 78 83 74 82 92 94 83 73 69 76 64 76 60
45 48 54 58 58 60 62 58 61 59 61 63 68 74 75 75 76 80 83 81 81 80 82 85 87 86 85 85 82 78 79 84 80 77 84 94 85 73 78 70 65 71 64
40 45 52 58 61 58 58 56 56 58 60 65 63 60 71 72 76 80 84 84 79 78 78 80 83 87 86 82 78 74 81 82 87 84 68 74 68 94 80 74 64 62 63
39 44 50 53 56 59 56 58 61 62 65 65 58 67 72 77 81 81 82 83 83 77 74 78 81 87 86 81 80 84 81 83 86 89 90 87 86 85 91 82 75 65 63
38 40 46 50 55 59 60 61 61 65 66 65 66 63 64 73 74 80 84 87 85 83 78 76 85 84 84 83 86 87 84 84 78 76 82 88 92 91 93 86 78 78 70
39 42 48 52 58 59 60 59 59 64 64 62 63 63 66 67 68 73 80 84 85 85 80 80 83 84 82 84 87 86 82 80 80 80 87 89 89 87 88 89 86 78 69
38 41 47 49 55 55 57 54 57 62 61 61 64 65 66 70 74 76 79 82 83 83 80 83 82 80 80 83 88 87 83 79 82 82 86 89 90 88 90 94 93 85 73
40 41 47 48 52 54 56 57 57 58 61 63 66 69 71 73 74 75 75 81 82 73 81 80 83 82 78 81 88 86 83 78 81 84 84 90 89 89 90 89 91 94 88
44 44 50 51 50 52 54 57 55 57 59 60 63 65 69 70 72 72 72 78 80 77 78 78 79 79 79 87 87 85 79 77 80 76 84 84 88 90 93 91 89 91 92
47 50 52 52 50 52 55 59 58 59 60 59 63 68 70 72 72 70 72 75 80 77 78 76 77 79 84 85 80 76 75 76 78 79 81 85 85 82 84 83 87 87 93
54 53 57 56 55 56 57 60 61 58 59 60 64 69 72 70 71 70 71 76 78 78 78 77 79 80 89 82 80 76 76 78 80 80 83 83 68 82 81 84 87 87 92
60 63 62 62 64 66 62 62 61 57 57 62 70 72 72 70 71 72 76 73 75 78 78 78 81 81 90 84 82 79 78 80 82 83 85 84 80 82 82 88 84 86 68
56 64 64 65 69 68 68 63 66 64 62 66 69 72 70 70 71 73 75 74 72 77 81 82 80 88 84 82 80 76 80 82 79 76 83 79 80 86 88 82 90 70 77
56 61 64 66 66 66 63 62 64 65 64 66 68 70 71 70 72 76 77 77 73 73 82 84 87 86 80 73 87 78 81 83 88 83 74 76 73 66 70 80 86 84 90
53 55 57 63 66 62 63 60 63 64 62 64 67 67 70 69 71 75 76 75 75 78 86 82 87 84 67 67 73 81 90 78 78 86 87 81 72 78 69 73 75 85 86
42 52 56 63 62 60 59 62 61 62 62 64 65 69 69 70 70 68 66 67 69 79 80 86 84 82 80 65 68 64 84 90 92 92 90 78 73 82 88 84 81 78 70
43 49 55 61 61 59 60 61 58 60 64 68 68 70 73 66 65 63 66 65 68 72 77 82 82 81 67 61 63 61 64 71 86 92 94 93 93 90 82 90 95 93 88
47 51 53 57 59 60 59 58 60 64 69 75 84 90 73 61 62 62 64 66 69 72 75 75 72 72 70 61 61 59 61 58 70 63 78 86 91 75 64 82 91 89 88
47 54 59 60 62 59 60 64 70 81 95 98 99 93 62 60 60 63 64 65 67 65 65 66 72 66 68 60 58 58 57 70 69 71 69 71 70 62 61 75 87 92 92
66 61 64 69 66 64 66 79 89 96 99 99 95 68 59 58 63 67 68 69 69 71 73 66 70 68 66 64 60 58 58 74 83 83 81 72 62 61 62 64 82 81 76
67 66 72 73 68 70 78 91 96 98 98 97 76 61 59 55 61 68 70 68 75 79 82 77 75 75 72 60 66 59 63 65 89 94 85 74 62 63 65 70 66 64 79
66 66 70 73 74 77 82 89 96 96 96 71 60 60 58 60 62 69 74 76 77 81 89 88 95 97 87 91 72 71 67 69 92 76 66 62 66 69 82 72 67 77 85
67 67 70 72 69 70 80 88 96 96 76 77 79 74 83 78 77 82 83 91 95 96 96 98 98 98 98 97 93 91 97 78 87 88 88 88 85 89 88 84 77 79 80
59 57 63 72 89 92 96 96 92 73 68 83 88 91 92 92 94 92 93 92 96 88 94 96 96 99 100 95 80 76 97 95 90 91 97 98 94 88 84 81 77 77 78
63 63 60 76 92 88 82 89 72 65 70 82 89 91 94 97 96 96 100 78 82 85 71 72 88 98 84 76 59 53 72 58 62 93 99 100 99 98 92 89 89 84 85

GFSMW_sfc_rhum_186.txt.gz
RH
57 52 56 60 67 74 74 74 75 79 77 79 80 84 89 88 88 86 84 84 85 85 88 88 83 82 76 82 79 84 83 76 75 80 80 79 80 64 76 72 64 62 56
54 53 56 60 64 68 70 72 69 76 69 66 80 81 82 84 87 89 87 84 84 85 81 86 85 82 80 81 81 83 84 79 76 84 85 82 73 70 68 73 61 65 60
52 53 56 60 64 65 68 68 68 70 70 68 74 77 82 83 88 90 89 86 82 84 86 86 86 85 84 84 83 83 82 85 81 76 82 81 83 80 74 72 66 64 67
48 49 54 60 61 61 61 60 64 69 66 66 70 66 73 74 82 84 90 88 81 81 83 84 86 84 84 84 83 80 83 79 85 83 75 79 80 92 84 70 71 63 63
46 47 51 53 56 59 63 61 62 64 62 66 63 67 68 78 82 87 87 86 81 77 77 83 83 82 85 86 82 80 81 78 77 84 86 86 84 83 85 79 73 66 64
46 43 46 52 57 60 61 62 61 61 64 65 65 63 68 76 83 85 84 84 82 82 82 80 83 83 85 87 83 76 73 74 74 77 84 87 88 86 89 80 76 76 67
48 44 51 56 60 64 60 59 57 62 65 65 63 65 69 69 77 79 81 83 83 82 85 83 83 83 86 86 80 77 75 74 76 78 82 84 86 86 86 85 77 74 65
46 43 47 52 56 58 58 56 57 62 64 64 66 68 67 69 73 76 79 79 79 81 84 83 81 82 84 87 84 83 77 74 79 77 81 82 85 85 87 84 87 80 63
47 43 46 53 56 59 58 55 56 57 61 64 68 68 69 71 73 76 77 80 79 76 82 84 82 81 84 88 81 77 72 73 75 76 80 84 84 86 89 87 83 90 87
53 49 48 55 57 58 55 56 54 57 58 60 63 66 69 68 72 74 78 78 76 75 82 84 83 81 89 86 80 74 72 71 73 76 81 83 84 85 80 84 85 89 84
57 58 59 56 56 55 55 57 57 57 58 58 62 68 71 72 72 72 76 77 78 76 77 78 79 83 88 82 79 72 72 70 74 77 81 79 73 76 82 79 83 81 86
57 63 63 62 58 58 59 58 58 58 59 60 65 69 74 72 72 73 76 78 75 75 77 78 78 86 85 80 76 71 72 75 75 76 79 77 57 77 76 81 80 86 75
64 67 68 66 70 65 62 59 59 58 57 61 68 71 74 75 74 73 75 76 77 77 76 79 82 90 84 81 80 76 76 78 76 77 81 74 74 77 79 83 80 76 61
62 72 72 70 74 70 69 65 67 63 60 63 66 72 74 74 74 74 74 77 76 77 80 82 84 90 84 79 78 72 77 77 75 71 73 72 74 83 89 72 79 66 79
62 68 69 70 70 71 68 64 65 65 63 64 67 72 74 75 75 78 75 76 77 76 80 84 90 86 80 73 85 74 79 76 84 76 70 69 69 66 69 80 87 87 84
44 58 61 64 66 67 65 63 65 65 63 64 66 71 76 73 74 76 77 76 78 83 83 85 87 84 68 74 73 79 84 69 71 80 84 74 70 74 69 73 76 73 87
41 42 59 60 62 63 60 63 65 64 63 65 70 74 71 73 77 78 81 79 75 84 81 87 84 82 80 73 72 70 80 84 86 88 86 74 70 82 88 85 78 73 67
44 50 57 58 59 60 60 63 64 66 67 69 72 72 75 79 84 95 86 71 78 77 82 84 80 78 69 66 70 63 60 69 82 90 91 91 91 90 82 93 94 92 89
43 46 52 60 62 61 61 64 68 69 69 73 77 80 89 95 98 96 70 69 71 75 80 76 77 74 70 64 62 58 61 58 65 61 77 88 92 71 62 88 92 94 91
57 57 60 63 63 62 63 68 76 79 83 88 94 96 98 98 97 80 76 67 68 68 66 66 68 65 69 62 58 56 56 68 68 69 65 67 70 60 60 77 90 92 94
70 70 72 71 65 64 69 75 77 90 95 97 98 98 99 97 76 70 67 65 65 65 68 64 70 67 62 63 58 56 58 74 85 86 78 67 63 61 61 62 81 82 80
75 78 75 72 66 62 69 85 93 97 97 97 97 98 97 68 65 66 67 63 71 73 73 75 73 66 61 60 63 57 60 66 90 93 84 78 61 62 63 70 66 65 87
76 75 75 77 74 75 77 90 97 94 96 97 97 96 72 60 61 66 71 74 77 82 86 85 92 94 86 86 70 70 66 74 88 77 66 59 61 65 80 70 68 78 89
78 76 82 89 92 86 88 93 94 96 96 96 97 89 82 76 74 78 80 89 93 95 93 94 96 98 96 94 92 91 94 71 80 83 82 87 85 88 86 82 77 77 80
79 79 79 92 93 91 93 92 96 96 95 96 95 90 88 91 94 93 91 90 96 86 91 92 92 98 99 95 85 84 97 94 91 92 92 92 91 89 83 77 74 74 77
71 78 87 94 92 91 93 96 96 94 87 87 88 91 94 96 95 94 99 71 80 76 67 73 84 96 78 70 66 53 80 58 62 87 93 97 98 97 92 90 86 81 83